Probability
0 0 0 0 0 0 0 0 0 0 0 0 0 0 0 0 0 0 0 0 0 0 0 0 0 0 0 0 0 0 0 0 0 0 0 0 0 0 0 0 0 0 0 0
0 0 0 0 0 0 0 0 0 0 0 0 0 0 0 0 0 0 0 0 0 0 0 0 0 0 0 0 0 0 0 0 0 0 0 0 0 0 0 0 0 0 0 0
0 0 0 0 0 0 0 0 0 0 0 0 0 0 0 0 0 0 0 0 0 0 0 0 0 0 0 0 0 0 0 0 0 0 0 0 0 0 0 0 0 0 0 0
0 0 0 0 0 0 0 0 0 0 0 0 0 0 0 0 0 0 0 0 0 0 0 0 0 0 0 0 0 0 0 0 0 0 0 0 0 0 0 0 0 0 0 0
0 0 0 0 0 0 0 0 0 0 0 0 0 0 0 0 0 0 0 0 0 0 0 0 0 0 0 0 0 0 0 0 0 0 0 0 0 0 0 0 0 0 0 0
0 0 0 0 0 0 0 0 0 0 0 0 0 0 0 0 0 0 0 0 0 0 0 0 0 0 0 0 0 0 0 0 0 0 0 0 0 0 0 0 0 0 0 0
0 0 0 0 0 0 0 0 0 0 0 0 0 0 0 0 0 0 0 0 0 0 0 0 0 0 0 0 0 0 0 0 0 0 0 0 0 0 0 0 0 0 0 0
0 0 0 0 0 0 0 0 0 0 0 0 0 0 0 0 0 0 0 0 0 0 0 0 0 0 0 0 0 0 0 0 0 0 0 0 0 0 0 0 0 0 0 0
0 0 0 0 0 0 0 0 0 0 0 0 0 0 0 0 0 0 0 0 0 0 0 0 0 0 0 0 0 0 0 0 0 0 0 0 0 0 0 0 0 0 0 0
0 0 0 0 0 0 0 0 0 0 0 0 0 0 0 0 0 0 0 0 0 0 0 0 0 0 0 0 0 0 0 0 0 0 0 0 0 0 0 0 0 0 0 0
0 0 0 0 0 0 0 0 0 0 0 0 0 0 0 0 0 0 0 0 0 0 0 0 0 0 0 0 0 0 0 0 0 0 0 0 0 0 0 0 0 0 0 0
0 0 0 0 0 0 0 0 0 0 0 0 0 0 0 0 0 0 0 0 0 0 0 0 0 0 0 0 0 0 0 0 0 0 0 0 0 0 0 0 0 0 0 0
0 0 0 0 0 0 0 0 0 0 0 0 0 0 0 0 0 0 0 0 0 0 0 0 0 0 0 0 0 0 0 0 0 0 0 0 0 0 0 0 0 0 0 0
0 0 0 0 0 0 0 0 0 0 0 0 0 0 0 0 0 0 0 0 0 0 0 0 0 0 0 0 0 0 0 0 0 0 0 0 0 0 0 0 0 0 0 0
0 0 0 0 0 0 0 0 0 0 0 0 0 0 0 0 0 0 0 0 0 0 0 0 0 0 0 0 0 0 0 0 0 0 0 0 0 0 0 0 0 0 0 0
0 0 0 0 0 0 0 0 0 0 0 0 0 0 0 0 0 0 0 0 0 0 0 0 0 0 0 0 0 0 0 0 0 0 0 0 0 0 0 0 0 0 0 0
0 0 0 0 0 0 0 0 0 0 0 0 0 0 0 0 0 0 0 0 0 0 0 0 0 0 0 0 0 0 0 0 0 0 0 0 0 0 0 0 0 0 0 0
0 0 0 0 0 0 0 0 0 0 0 0 0 0 0 0 0 0 0 0 0 0 0 0 0 0 0 0 0 0 0 0 0 0 0 0 0 0 0 0 0 0 0 0
0 0 0 0 0 0 0 0 0 0 0 0 0 0 0 0 0 0 0 0 0 0 0 0 0 0 0 0 0 0 0 0 0 0 0 0 0 0 0 0 0 0 0 0
0 0 0 0 0 0 0 0 0 0 0 0 0 0 0 0 0 0 0 0 0 0 0 0 0 0 0 0 0 0 0 0 0 0 0 0 0 0 0 0 0 0 0 0
0 0 0 0 0 0 0 0 0 0 0 0 0 0 0 0 0 0 0 0 0 0 0 0 0 0 0 0 0 0 0 0 0 0 0 0 0 0 0 0 0 0 0 0
0 0 0 0 0 0 0 0 0 0 0 0 0 0 0 0 0 0 0 0 0 0 0 0 0 0 0 0 0 0 0 0 0 0 0 0 0 0 0 0 0 0 0 0
0 0 0 0 0 0 0 0 0 0 0 0 0 0 0 0 0 0 0 0 0 0 0 0 0 0 0 0 0 0 0 0 0 0 0 0 0 0 0 0 0 0 0 0
0 0 0 0 0 0 0 0 0 0 0 0 0 0 0 0 0 0 0 0 0 0 0 0 0 0 0 0 0 0 0 0 0 0 0 0 0 0 0 0 0 0 0 0
0 0 0 0 0 0 0 0 0 0 0 0 0 0 0 0 0 0 0 0 0 0 0 0 0 0 0 0 0 0 0 0 0 0 0 0 0 0 0 0 0 0 0 0
0 0 0 0 0 0 0 0 0 0 0 0 0 0 0 0 0 0 0 0 0 0 0 0 0 0 0 0 0 0 0 0 0 0 0 0 0 0 0 0 0 0 0 0
0 0 0 0 0 0 0 0 0 0 0 0 0 0 0 0 0 0 0 0 0 0 0 0 0 0 0 0 0 0 0 0 0 0 0 0 0 0 0 0 0 0 0 0
Wind_Speed
12 13 13 15 16 15 17 17 16 17 17 13 9 7 6 5 5 5 7 8 9 9 9 9 9 9 9 10 11 12 13 13 13 13 12 12 12 12 12 11 11 11 11 11
12 11 12 16 18 19 20 21 21 18 19 13 9 7 6 5 5 6 7 8 8 9 9 9 10 10 10 10 11 12 12 12 12 12 12 12 12 12 12 11 11 11 11 11
9 9 9 14 16 19 19 21 21 20 16 9 10 10 9 7 7 7 7 7 7 8 9 10 10 10 11 11 11 12 12 12 12 12 12 12 12 12 12 12 11 11 11 10
6 7 11 7 7 14 17 18 16 16 12 12 13 12 11 8 7 7 6 6 7 8 8 8 9 10 10 11 11 11 12 12 12 12 12 12 12 12 12 10 11 10 10 10
6 8 11 9 8 12 14 15 13 15 13 11 10 10 12 10 8 8 8 7 7 7 7 9 10 11 12 12 11 12 12 12 13 13 13 13 13 12 11 10 10 9 9 9
7 8 10 7 5 7 10 13 9 11 12 10 8 11 11 9 9 10 8 6 5 5 7 9 11 12 13 13 13 13 12 12 12 13 13 13 13 12 10 9 9 8 8 8
12 10 10 7 5 4 10 7 5 9 10 9 11 13 10 9 10 10 8 6 5 7 8 10 12 13 13 13 13 12 12 12 12 12 13 13 12 10 10 9 9 9 8 7
10 12 10 3 2 6 6 7 7 8 9 11 14 14 11 10 10 9 7 6 6 7 7 8 12 13 13 13 11 12 12 12 12 12 11 10 12 11 11 11 10 9 8 7
8 10 8 6 7 9 10 11 11 10 11 12 13 14 14 12 11 10 8 7 7 7 7 8 11 13 13 12 13 14 14 13 12 12 11 11 12 12 11 10 8 8 7 7
11 13 14 14 14 13 13 14 14 13 12 11 13 13 13 11 10 9 8 7 6 8 8 9 10 11 11 13 14 15 15 13 12 12 11 11 9 9 9 9 8 8 7 7
16 16 16 16 15 15 16 16 15 14 13 13 13 13 12 11 10 9 7 7 8 9 10 10 10 10 11 14 16 15 14 13 12 11 11 10 8 6 7 6 7 9 8 7
16 15 14 17 16 18 18 18 17 16 16 14 13 13 11 10 9 8 8 8 8 10 10 10 10 11 13 14 16 17 14 13 11 10 10 9 9 8 8 7 9 8 8 8
20 20 20 22 22 21 20 19 18 17 16 14 12 10 10 9 8 8 8 10 10 11 10 11 11 12 13 15 16 16 15 14 11 11 10 10 10 10 9 9 10 10 11 10
18 18 21 20 20 19 19 18 16 15 13 12 10 9 7 7 7 8 9 9 9 10 11 12 13 13 14 15 15 15 14 13 12 11 10 10 10 9 9 10 9 7 8 10
18 18 20 19 19 18 16 14 13 12 11 10 8 7 7 7 7 7 6 7 8 10 11 12 13 13 14 15 15 16 14 11 11 10 10 9 9 9 9 9 8 8 7 7
16 17 18 19 19 18 16 14 13 12 11 9 7 7 6 5 4 4 6 8 11 12 13 13 13 14 15 15 15 13 11 14 13 11 10 10 9 9 9 8 8 7 7 7
16 17 16 16 17 16 15 14 13 12 10 8 7 5 4 4 4 5 6 7 8 10 11 13 13 14 14 15 15 12 12 13 15 11 10 9 9 9 8 8 7 7 6 6
16 17 17 16 15 15 14 13 12 11 9 7 5 5 6 7 7 7 7 8 9 9 9 11 13 15 14 14 13 11 12 11 10 10 9 9 8 8 8 7 8 8 6 6
14 15 16 15 14 13 13 12 11 9 7 6 6 7 6 6 6 8 10 11 12 12 10 12 16 15 14 14 14 12 12 12 10 9 9 12 9 8 7 7 7 7 7 6
13 13 13 12 11 11 11 9 8 6 6 7 7 7 7 7 8 10 10 8 6 7 12 14 15 13 14 14 14 11 12 12 11 10 9 9 8 8 7 7 7 6 6 5
12 11 10 9 8 7 6 6 6 6 6 8 9 9 9 9 9 10 10 9 7 10 13 16 12 11 11 13 14 11 11 11 11 10 9 9 8 8 7 7 6 6 5 5
11 9 8 6 4 3 2 2 4 6 7 8 8 9 10 10 10 9 7 7 10 13 11 10 10 13 15 15 10 11 11 10 9 8 8 8 8 8 7 7 6 5 5 4
10 8 6 4 2 1 2 3 5 6 8 9 9 10 10 9 8 9 8 7 9 13 10 10 15 20 19 12 10 10 11 10 9 8 8 7 7 7 6 6 5 5 4 4
9 7 5 3 3 4 5 5 6 6 8 8 7 8 8 8 7 6 8 13 14 14 10 15 21 21 17 9 9 9 9 9 8 8 8 7 6 6 5 5 5 4 4 4
7 6 4 4 4 4 5 7 9 10 10 9 10 9 6 6 8 9 10 12 16 15 12 15 20 17 11 9 9 9 8 8 8 8 7 7 6 6 5 4 4 4 3 3
6 5 4 4 3 3 4 5 6 6 7 9 8 8 8 8 10 10 10 12 15 15 12 10 10 11 9 9 9 9 8 9 8 7 7 6 6 5 5 4 4 3 3 2
5 4 4 5 5 5 5 6 7 7 7 8 10 8 9 9 9 10 12 11 10 10 9 9 8 8 8 9 9 8 7 7 6 6 6 5 5 4 4 4 3 2 2 2
Wind_Direction
272 272 262 251 240 230 226 224 228 235 240 243 251 254 248 233 215 205 196 192 191 189 184 178 175 174 173 171 172 172 175 179 181 179 177 176 175 174 174 174 175 174 174 176
272 271 262 257 242 233 231 231 235 243 246 249 256 264 259 236 212 212 204 199 196 191 185 183 179 174 170 169 169 171 173 174 171 171 169 170 169 168 167 167 167 167 172 173
266 277 275 253 233 225 223 226 229 235 240 244 244 242 245 235 219 220 217 209 201 198 195 189 182 175 173 168 165 168 168 167 167 167 167 167 164 165 166 166 164 166 169 172
261 261 239 246 234 230 233 233 234 243 252 243 247 250 251 242 240 240 232 224 215 206 200 189 176 170 164 161 164 165 165 166 166 166 165 164 164 167 166 164 164 165 168 170
237 246 260 265 248 229 226 234 234 241 247 251 256 253 246 240 254 252 240 235 226 211 198 181 173 165 159 162 165 166 168 168 168 166 164 164 166 166 161 159 160 161 163 165
228 238 242 253 254 248 228 244 238 240 245 253 244 240 243 259 263 262 257 244 228 197 187 178 171 163 163 166 169 173 171 168 165 165 165 166 165 159 155 155 154 151 153 160
230 242 256 281 291 207 208 243 266 246 247 246 237 244 268 269 262 258 255 242 214 192 188 182 169 166 169 170 176 170 161 159 161 164 164 162 157 152 150 147 145 145 145 150
221 235 245 289 218 210 262 301 303 280 262 254 253 259 270 265 260 254 249 233 210 195 189 178 171 171 172 175 166 155 153 154 158 159 154 154 150 148 148 146 145 146 146 145
235 248 284 281 265 278 293 291 296 293 285 271 262 259 262 263 259 250 239 225 211 197 183 180 178 178 175 166 155 153 152 153 153 151 151 153 152 150 149 151 151 152 153 153
259 261 272 276 280 283 284 289 296 295 290 280 269 267 266 262 256 251 243 224 207 192 185 182 182 182 172 156 155 153 152 151 151 149 148 148 148 150 153 158 157 156 158 156
257 269 277 273 273 281 288 289 291 292 287 280 275 272 266 260 252 246 241 224 207 199 192 185 176 172 163 158 156 152 150 148 149 148 146 144 141 143 152 156 162 161 161 158
258 265 271 279 285 285 285 285 285 286 286 282 273 270 266 259 251 241 231 217 205 200 191 180 172 167 165 163 159 153 150 151 151 148 145 141 135 114 85 109 119 124 134 144
260 269 272 276 280 280 279 281 282 278 278 280 277 271 266 261 251 238 224 211 201 193 184 175 170 168 166 164 161 158 154 152 149 149 147 146 144 139 128 104 104 115 126 131
265 270 271 271 274 277 277 279 280 277 275 274 273 268 261 256 246 231 217 207 194 183 177 173 168 167 165 162 158 155 150 147 147 148 148 148 146 143 141 140 136 125 125 131
265 264 266 272 276 276 277 276 275 272 271 271 268 259 248 239 234 225 206 186 174 171 170 167 162 161 160 157 153 150 147 147 144 142 141 140 139 137 136 136 135 134 133 132
275 271 266 267 269 272 273 271 268 268 267 265 261 255 245 232 220 198 182 174 169 170 167 163 160 158 155 151 147 144 141 139 139 138 137 137 139 139 139 140 140 144 148 147
276 274 272 270 268 268 266 265 264 264 263 259 253 240 212 187 174 168 167 168 164 159 159 158 152 148 149 148 144 139 137 137 134 134 137 140 142 142 142 143 145 146 147 153
271 270 271 271 271 270 269 265 261 257 253 250 225 201 189 182 175 165 154 144 135 132 140 145 142 142 144 144 139 136 136 138 139 138 137 138 139 139 139 141 144 143 142 150
280 275 272 268 266 264 263 261 255 249 239 216 196 188 185 177 163 152 146 143 142 141 143 140 139 139 138 138 135 132 133 133 132 132 132 135 134 135 138 142 144 146 147 152
292 285 280 276 270 261 257 253 241 230 214 189 175 168 161 155 148 143 139 135 139 136 139 139 136 134 134 134 130 131 133 134 134 134 134 137 137 138 139 141 143 146 150 154
304 297 288 281 275 265 255 238 214 199 182 173 166 157 148 142 142 140 134 124 117 126 133 133 131 132 132 132 127 128 131 132 134 136 137 137 137 138 139 142 144 147 149 151
317 310 302 296 289 284 267 203 173 159 150 146 142 138 136 135 133 122 107 119 129 132 131 129 128 130 132 129 125 126 128 129 130 132 134 137 139 140 142 145 146 147 150 153
322 322 324 328 337 38 64 95 119 132 135 136 139 140 138 135 135 131 121 123 129 128 125 125 129 129 127 121 122 124 126 128 129 131 132 134 135 137 140 144 144 147 152 157
333 337 344 2 56 81 82 80 90 98 104 106 108 116 123 122 107 95 110 122 124 122 118 124 128 126 120 116 118 120 122 124 125 125 125 125 127 130 135 140 143 148 153 160
342 352 9 39 63 79 90 94 93 93 94 94 93 91 91 97 110 115 115 119 119 115 114 120 121 118 113 113 115 117 119 121 124 124 125 126 128 131 135 140 146 151 157 165
354 4 19 38 58 83 96 99 100 101 102 100 94 90 91 95 102 107 109 111 112 110 109 111 113 109 106 108 109 111 113 117 116 115 121 123 129 133 136 140 146 153 161 170
7 20 39 53 57 68 82 91 98 101 103 107 105 99 99 101 102 104 106 107 107 104 102 102 102 102 104 105 106 107 108 110 112 115 119 122 127 132 138 144 149 155 165 178